Location: Strawberry
(45.6646°N, 111.9596°W)
Time: 12:42:56
(UTC+00:00)

Transit 4A - Pass Details

Date: 11 October 2022
Orbit: 871 x 973 km, 66.8° (Epoch: 26 November)

Event Time Altitude Azimuth Distance (km) Brightness Sun altitude
Rises 04:37:02 0° 233° (SW) 3,591 11.1 -38.5°
Reaches altitude 10° 04:39:43 10° 239° (WSW) 2,635 10.4 -38.9°
Enters shadow 04:39:58 11° 240° (WSW) 2,551 10.4 -39.0°
